Weather History for Doncaster Sheffield, United Kingdom

Change the Weather History Date:

Tuesday, September 24, 2013

  Actual Average Record
Temperature  
Mean Temperature 63 °F -  
Max Temperature 71 °F - - ()
Min Temperature 53 °F - - ()
Degree Days  
Heating Degree Days 2    
Growing Degree Days 13 (Base 50)    
Moisture  
Dew Point 56 °F    
Average Humidity 80    
Maximum Humidity 100    
Minimum Humidity 57    
Precipitation  
Precipitation 0.00 in - - ()
Sea Level Pressure  
Sea Level Pressure 30.03 in    
Wind  
Wind Speed 4 mph ()    
Max Wind Speed 10 mph    
Max Gust Speed -    
Visibility 5.6 miles    
Events      
T = Trace of Precipitation, MM = Missing Value Source: Averaged Metar Reports

Daily Weather History Graph

Daily Weather History Graph

Search for Another Location

Airport:

Trip Planner

Search our weather history database for the weather conditions in past years. The results will help you decide how hot, cold, wet, or windy it might be!

Date:

Astronomy

Sep. 24, 2013 Rise Set
Actual Time 6:53 AM BST 6:57 PM BST
Civil Twilight 6:18 AM BST 7:32 PM BST
Nautical Twilight 5:37 AM BST 8:13 PM BST
Astronomical Twilight 4:54 AM BST 8:56 PM BST
Moon 9:19 PM BST (9/24) 12:38 PM BST (9/24)
Length of Visible Light 13h 13m
Length of Day
12h 04m
Waning Gibbous, 75% of the Moon is Illuminated
Sep 24
Waning Gibbous
Sep 27
Last Quarter
Oct 5
New
Oct 12
First Quarter
Oct 19
Full

Hourly Weather History & Observations

Time (BST) Temp. Dew Point Humidity Pressure Visibility Wind Dir Wind Speed Gust Speed Precip Events Conditions
12:20 AM 62.6 °F 59.0 °F 88% 30.12 in 5.6 mi South 4.6 mph - N/A   Mostly Cloudy
12:50 AM 60.8 °F 57.2 °F 88% 30.12 in 5.6 mi South 3.5 mph - N/A   Mostly Cloudy
1:20 AM 60.8 °F 59.0 °F 94% 30.12 in 5.6 mi South 4.6 mph - N/A   Mostly Cloudy
1:50 AM 62.6 °F 59.0 °F 88% 30.12 in 5.6 mi South 3.5 mph - N/A   Mostly Cloudy
2:20 AM 60.8 °F 59.0 °F 94% 30.12 in 5.6 mi SSW 5.8 mph - N/A   Mostly Cloudy
2:50 AM 60.8 °F 59.0 °F 94% 30.09 in 5.6 mi Variable 2.3 mph - N/A   Mostly Cloudy
3:20 AM 60.8 °F 59.0 °F 94% 30.09 in 5.6 mi SW 3.5 mph - N/A   Mostly Cloudy
3:50 AM 60.8 °F 59.0 °F 94% 30.09 in 5.6 mi South 4.6 mph - N/A   Mostly Cloudy
4:20 AM 60.8 °F 57.2 °F 88% 30.09 in 5.6 mi SSW 4.6 mph - N/A   Mostly Cloudy
4:50 AM 60.8 °F 57.2 °F 88% 30.06 in 5.6 mi South 6.9 mph - N/A   Mostly Cloudy
5:20 AM 60.8 °F 57.2 °F 88% 30.06 in 5.6 mi South 6.9 mph - N/A   Mostly Cloudy
5:50 AM 60.8 °F 57.2 °F 88% 30.06 in 5.6 mi SSW 8.1 mph - N/A   Mostly Cloudy
6:20 AM 60.8 °F 57.2 °F 88% 30.06 in 5.6 mi SSW 4.6 mph - N/A   Mostly Cloudy
6:50 AM 60.8 °F 57.2 °F 88% 30.06 in 5.6 mi SSW 5.8 mph - N/A   Mostly Cloudy
7:20 AM 60.8 °F 57.2 °F 88% 30.06 in 5.6 mi South 4.6 mph - N/A   Mostly Cloudy
7:50 AM 60.8 °F 57.2 °F 88% 30.06 in 5.0 mi South 3.5 mph - N/A   Overcast
8:20 AM 60.8 °F 55.4 °F 82% 30.06 in 5.0 mi South 4.6 mph - N/A   Overcast
8:50 AM 60.8 °F 55.4 °F 82% 30.06 in 5.0 mi South 5.8 mph - N/A   Overcast
9:20 AM 60.8 °F 53.6 °F 77% 30.04 in 5.6 mi Variable 3.5 mph - N/A   Overcast
9:50 AM 60.8 °F 55.4 °F 82% 30.04 in 5.6 mi SE 4.6 mph - N/A   Mostly Cloudy
10:20 AM 62.6 °F 55.4 °F 77% 30.04 in 5.6 mi South 4.6 mph - N/A   Mostly Cloudy
10:50 AM 64.4 °F 55.4 °F 73% 30.04 in 5.6 mi Variable 3.5 mph - N/A   Mostly Cloudy
11:20 AM 64.4 °F 55.4 °F 73% 30.04 in 5.6 mi Variable 2.3 mph - N/A   Scattered Clouds
11:50 AM 66.2 °F 55.4 °F 68% 30.04 in 5.6 mi Variable 2.3 mph - N/A   Scattered Clouds
12:20 PM 68.0 °F 57.2 °F 68% 30.04 in 6.2 mi Variable 3.5 mph - N/A   Partly Cloudy
12:50 PM 68.0 °F 55.4 °F 64% 30.01 in - Variable 4.6 mph - N/A   Clear
1:20 PM 69.8 °F 57.2 °F 64% 30.01 in - Variable 3.5 mph - N/A   Clear
1:50 PM 69.8 °F 55.4 °F 60% 30.01 in - Variable 3.5 mph - N/A   Clear
2:20 PM 71.6 °F 55.4 °F 57% 30.01 in - South 4.6 mph - N/A   Clear
2:50 PM 71.6 °F 55.4 °F 57% 30.01 in - SW 4.6 mph - N/A   Clear
3:20 PM 71.6 °F 55.4 °F 57% 30.01 in - Variable 3.5 mph - N/A   Clear
3:50 PM 71.6 °F 57.2 °F 60% 29.98 in - Variable 1.2 mph - N/A   Clear
4:20 PM 71.6 °F 55.4 °F 57% 29.98 in - Variable 2.3 mph - N/A   Clear
4:50 PM 71.6 °F 57.2 °F 60% 29.98 in - Variable 2.3 mph - N/A   Clear
5:20 PM 66.2 °F 57.2 °F 73% 29.98 in - NE 10.4 mph - N/A   Clear
5:50 PM 64.4 °F 57.2 °F 77% 29.98 in - NNE 9.2 mph - N/A   Clear
6:20 PM 64.4 °F 57.2 °F 77% 29.98 in - NE 6.9 mph - N/A   Clear
6:50 PM 62.6 °F 57.2 °F 82% 29.98 in - ENE 5.8 mph - N/A   Clear
7:20 PM 62.6 °F 57.2 °F 82% 29.98 in - ENE 6.9 mph - N/A   Clear
7:50 PM 60.8 °F 55.4 °F 82% 29.98 in - NE 6.9 mph - N/A   Clear
8:20 PM 60.8 °F 55.4 °F 82% 29.98 in - NNE 4.6 mph - N/A   Clear
8:50 PM 59.0 °F 55.4 °F 88% 29.98 in - NE 5.8 mph - N/A   Clear
9:20 PM 57.2 °F 55.4 °F 94% 29.98 in - NE 4.6 mph - N/A   Clear
9:50 PM 57.2 °F 53.6 °F 88% 29.98 in - NE 4.6 mph - N/A   Clear
10:20 PM 55.4 °F 53.6 °F 94% 29.95 in - Variable 2.3 mph - N/A   Clear
10:50 PM 55.4 °F 53.6 °F 94% 29.95 in - Variable 1.2 mph - N/A   Clear
11:20 PM 55.4 °F 53.6 °F 94% 29.95 in 5.6 mi North 3.5 mph - N/A   Unknown
11:50 PM 53.6 °F 53.6 °F 100% 29.95 in 5.6 mi NNE 3.5 mph - N/A   Partly Cloudy